This demonstration page uses our WeatherBlox Daily Observations layout. Learn more.

Left ArrowRight Arrow

44.31136, -96.79839

Hourly Observations for May 20, 2022

Temp ( °F °C ) Dew Point ( °F °C ) Humidity (%) Winds ( mph kmh ) Pressure ( in mb ) Visibility ( mi km ) Precip ( " mm )
12:56 am 00:56 Cloudy with Light Rain 46 7.8 46 7.8 100 100 NNW 6 9 29.44 997 10 16 0.06 1.52
1:36 am 01:36 Cloudy with Nearby Thunderstorms 46 8 46 8 100 100 WNW 9 15 29.46 998 9 14 0.01 0.25
1:51 am 01:51 Cloudy 46 8 46 8 100 100 W 8 13 29.48 998 10 16 0.01 0.25
1:56 am 01:56 Cloudy with Light Rain 47 8.3 46 7.8 97 97 W 5 7 29.46 998 10 16 0.01 0.25
2:56 am 02:56 Cloudy with Light Rain 47 8.3 46 7.8 97 97 W 5 7 29.48 998 10 16 0.00 0.00
3:56 am 03:56 Cloudy 47 8.3 46 7.8 97 97 W 7 11 29.47 998 10 16 0.00 0.00
4:56 am 04:56 Cloudy 47 8.3 46 7.8 97 97 SW 9 15 29.47 998 10 16 0.00 0.00
5:56 am 05:56 Cloudy 47 8.3 46 7.8 97 97 SW 5 7 29.46 998 10 16 0.00 0.00
6:56 am 06:56 Cloudy 47 8.3 44 6.7 90 90 SW 6 9 29.48 998 10 16 0.00 0.00
7:56 am 07:56 Sunny 49 9.4 43 6.1 80 80 SW 12 19 29.50 999 10 16 0.00 0.00
8:56 am 08:56 Sunny 50 10 42 5.6 74 74 W 13 20 29.52 1000 10 16 0.00 0.00
9:56 am 09:56 Sunny 52 11.1 40 4.4 64 64 W 14 22 29.55 1001 10 16 0.00 0.00
10:56 am 10:56 Mostly Sunny 52 11.1 41 5 66 66 W 14 22 29.58 1002 10 16 0.00 0.00
11:56 am 11:56 Partly Cloudy 54 12.2 41 5 62 62 W 22 35 29.60 1002 10 16 0.00 0.00
12:56 pm 12:56 Sunny 55 12.8 40 4.4 57 57 W 20 31 29.61 1003 10 16 0.00 0.00
1:56 pm 13:56 Mostly Cloudy 56 13.3 40 4.4 55 55 W 25 41 29.63 1003 10 16 0.00 0.00
2:56 pm 14:56 Mostly Cloudy 56 13.3 39 3.9 53 53 W 22 35 29.65 1004 10 16 0.00 0.00
3:56 pm 15:56 Cloudy 57 13.9 40 4.4 53 53 W 21 33 29.66 1005 10 16 0.00 0.00
4:56 pm 16:56 Mostly Cloudy 59 15 41 5 51 51 WNW 25 41 29.69 1005 10 16 0.00 0.00
5:33 pm 17:33 Cloudy 54 12 45 7 72 72 NW 20 31 29.68 1005 10 16 0.00 0.00
5:56 pm 17:56 Cloudy 54 12.2 44 6.7 69 69 NW 17 28 29.73 1007 10 16 0.00 0.00
6:39 pm 18:39 Cloudy with Light Rain 48 9 45 7 87 87 NNW 22 35 29.75 1007 10 16 0.00 0.00
6:51 pm 18:51 Cloudy with Light Rain 46 8 45 7 93 93 NNW 21 33 29.76 1008 10 16 0.00 0.00
6:56 pm 18:56 Cloudy with Light Rain 47 8.3 45 7.2 93 93 N 18 30 29.80 1009 10 16 0.00 0.00
7:17 pm 19:17 Cloudy 46 8 43 6 87 87 NNW 16 26 29.78 1009 10 16 0.00 0.00
7:56 pm 19:56 Cloudy 47 8.3 41 5 80 80 NNW 21 33 29.86 1011 10 16 0.00 0.00
8:56 pm 20:56 Cloudy 45 7.2 38 3.3 77 77 NNW 16 26 29.91 1013 10 16 0.00 0.00
9:56 pm 21:56 Cloudy 44 6.7 37 2.8 76 76 NNW 16 26 29.96 1015 10 16 0.00 0.00
10:07 pm 22:07 Cloudy 43 6 37 3 81 81 NNW 13 20 29.95 1014 10 16 0.00 0.00
10:18 pm 22:18 Cloudy 43 6 37 3 81 81 NW 13 20 29.96 1014 10 16 0.00 0.00
10:46 pm 22:46 Cloudy with Light Rain 43 6 37 3 81 81 NNW 14 22 29.98 1015 10 16 0.00 0.00
10:53 pm 22:53 Cloudy with Light Rain 41 5 39 4 93 93 NNW 14 22 29.98 1015 9 14 0.00 0.00
10:56 pm 22:56 Cloudy with Light Rain 41 5 39 3.9 93 93 NNW 13 20 30.00 1016 8 13 0.00 0.00
11:42 pm 23:42 Cloudy 41 5 39 4 93 93 NNW 10 17 30.00 1016 10 16 0.00 0.00
11:56 pm 23:56 Cloudy with Light Rain 41 5 39 3.9 93 93 NNW 10 17 30.02 1017 10 16 0.00 0.00

Powered by AerisWeather